Year,Month,Day,Hour,Minute,Value (Times are PST for temperature in C)
2010,04,12,00,00,11.70
2010,04,12,00,01,11.70
2010,04,12,00,02,11.70
2010,04,12,00,03,11.70
2010,04,12,00,04,11.70
2010,04,12,00,05,11.70
2010,04,12,00,06,11.70
2010,04,12,00,07,11.70
2010,04,12,00,08,11.70
2010,04,12,00,09,11.70
2010,04,12,00,10,11.70
2010,04,12,00,11,11.70
2010,04,12,00,12,11.70
2010,04,12,00,13,11.70
2010,04,12,00,14,11.70
2010,04,12,00,15,11.80
2010,04,12,00,16,11.80
2010,04,12,00,17,11.80
2010,04,12,00,18,11.80
2010,04,12,00,19,11.70
2010,04,12,00,20,11.70
2010,04,12,00,21,11.70
2010,04,12,00,22,11.70
2010,04,12,00,23,11.60
2010,04,12,00,24,11.60
2010,04,12,00,25,11.60
2010,04,12,00,26,11.60
2010,04,12,00,27,11.60
2010,04,12,00,28,11.60
2010,04,12,00,29,11.60
2010,04,12,00,30,11.60
2010,04,12,00,31,11.60
2010,04,12,00,32,11.60
2010,04,12,00,33,11.60
2010,04,12,00,34,11.60
2010,04,12,00,35,11.60
2010,04,12,00,36,11.60
2010,04,12,00,37,11.60
2010,04,12,00,38,11.60
2010,04,12,00,39,11.60
2010,04,12,00,40,11.60
2010,04,12,00,41,11.60
2010,04,12,00,42,11.60
2010,04,12,00,43,11.60
2010,04,12,00,44,11.60
2010,04,12,00,45,11.60
2010,04,12,00,46,11.50
2010,04,12,00,47,11.40
2010,04,12,00,48,11.40
2010,04,12,00,49,11.40
2010,04,12,00,50,11.40
2010,04,12,00,51,11.40
2010,04,12,00,52,11.40
2010,04,12,00,53,11.40
2010,04,12,00,54,11.40
2010,04,12,00,55,11.40
2010,04,12,00,56,11.40
2010,04,12,00,57,11.40
2010,04,12,00,58,11.40
2010,04,12,00,59,11.30
2010,04,12,01,00,11.30
2010,04,12,01,01,11.30
2010,04,12,01,02,11.30
2010,04,12,01,03,11.30
2010,04,12,01,04,11.20
2010,04,12,01,05,11.20
2010,04,12,01,06,11.20
2010,04,12,01,07,11.20
2010,04,12,01,08,11.20
2010,04,12,01,09,11.30
2010,04,12,01,10,11.20
2010,04,12,01,11,11.20
2010,04,12,01,12,11.20
2010,04,12,01,13,11.20
2010,04,12,01,14,11.20
2010,04,12,01,15,11.20
2010,04,12,01,16,11.20
2010,04,12,01,17,11.20
2010,04,12,01,18,11.20
2010,04,12,01,19,11.20
2010,04,12,01,20,11.20
2010,04,12,01,21,11.20
2010,04,12,01,22,11.20
2010,04,12,01,23,11.20
2010,04,12,01,24,11.20
2010,04,12,01,25,11.10
2010,04,12,01,26,11.10
2010,04,12,01,27,11.10
2010,04,12,01,28,11.10
2010,04,12,01,29,11.10
2010,04,12,01,30,11.10
2010,04,12,01,31,11.10
2010,04,12,01,32,11.10
2010,04,12,01,33,11.10
2010,04,12,01,34,11.10
2010,04,12,01,35,11.10
2010,04,12,01,36,11.10
2010,04,12,01,37,11.10
2010,04,12,01,38,11.10
2010,04,12,01,39,11.10
2010,04,12,01,40,11.10
2010,04,12,01,41,11.10
2010,04,12,01,42,11.10
2010,04,12,01,43,11.10
2010,04,12,01,44,11.10
2010,04,12,01,45,11.10
2010,04,12,01,46,11.10
2010,04,12,01,47,11.20
2010,04,12,01,48,11.20
2010,04,12,01,49,11.20
2010,04,12,01,50,11.20
2010,04,12,01,51,11.20
2010,04,12,01,52,11.30
2010,04,12,01,53,11.30
2010,04,12,01,54,11.30
2010,04,12,01,55,11.30
2010,04,12,01,56,11.30
2010,04,12,01,57,11.30
2010,04,12,01,58,11.30
2010,04,12,01,59,11.30
2010,04,12,02,00,11.30
2010,04,12,02,01,11.30
2010,04,12,02,02,11.30
2010,04,12,02,03,11.20
2010,04,12,02,04,11.20
2010,04,12,02,05,11.20
2010,04,12,02,06,11.20
2010,04,12,02,07,11.20
2010,04,12,02,08,11.20
2010,04,12,02,09,11.20
2010,04,12,02,10,11.20
2010,04,12,02,11,11.20
2010,04,12,02,12,11.20
2010,04,12,02,13,11.20
2010,04,12,02,14,11.20
2010,04,12,02,15,11.10
2010,04,12,02,16,11.10
2010,04,12,02,17,11.10
2010,04,12,02,18,11.10
2010,04,12,02,19,11.10
2010,04,12,02,20,11.10
2010,04,12,02,21,11.10
2010,04,12,02,22,11.10
2010,04,12,02,23,11.10
2010,04,12,02,24,11.10
2010,04,12,02,25,11.10
2010,04,12,02,26,11.10
2010,04,12,02,27,11.10
2010,04,12,02,28,11.10
2010,04,12,02,29,11.10
2010,04,12,02,30,11.10
2010,04,12,02,31,11.10
2010,04,12,02,32,11.10
2010,04,12,02,33,11.10
2010,04,12,02,34,11.10
2010,04,12,02,35,11.10
2010,04,12,02,36,11.10
2010,04,12,02,37,11.10
2010,04,12,02,38,11.10
2010,04,12,02,39,11.10
2010,04,12,02,40,11.10
2010,04,12,02,41,11.10
2010,04,12,02,42,11.10
2010,04,12,02,43,11.10
2010,04,12,02,44,11.10
2010,04,12,02,45,11.10
2010,04,12,02,46,11.10
2010,04,12,02,47,11.10
2010,04,12,02,48,11.10
2010,04,12,09,01,12.50
2010,04,12,09,02,12.50
2010,04,12,09,03,12.60
2010,04,12,09,04,12.60
2010,04,12,09,05,12.70
2010,04,12,09,06,12.80
2010,04,12,09,07,12.90
2010,04,12,09,08,13.10
2010,04,12,09,09,13.20
2010,04,12,09,10,13.30
2010,04,12,09,11,13.40
2010,04,12,09,12,13.50
2010,04,12,09,13,13.60
2010,04,12,09,14,13.60
2010,04,12,09,15,13.70
2010,04,12,09,16,13.70
2010,04,12,09,17,13.70
2010,04,12,09,18,13.70
2010,04,12,09,19,13.70
2010,04,12,09,20,13.70
2010,04,12,09,21,13.70
2010,04,12,09,22,13.70
2010,04,12,09,23,13.70
2010,04,12,09,24,13.60
2010,04,12,09,25,13.50
2010,04,12,09,26,13.50
2010,04,12,09,27,13.50
2010,04,12,09,28,13.40
2010,04,12,09,29,13.40
2010,04,12,09,30,13.40
2010,04,12,09,31,13.40
2010,04,12,09,32,13.40
2010,04,12,09,33,13.40
2010,04,12,09,34,13.40
2010,04,12,09,35,13.50
2010,04,12,09,36,13.50
2010,04,12,09,37,13.50
2010,04,12,09,38,13.60
2010,04,12,09,39,13.60
2010,04,12,09,40,13.60
2010,04,12,09,41,13.50
2010,04,12,09,42,13.50
2010,04,12,09,43,13.60
2010,04,12,09,44,13.60
2010,04,12,09,45,13.70
2010,04,12,09,46,13.70
2010,04,12,09,47,13.70
2010,04,12,09,48,13.70
2010,04,12,09,49,13.80
2010,04,12,09,50,13.80
2010,04,12,09,51,13.90
2010,04,12,09,52,14.00
2010,04,12,09,53,14.20
2010,04,12,09,54,14.30
2010,04,12,09,55,14.40
2010,04,12,09,56,14.50
2010,04,12,09,57,14.60
2010,04,12,09,58,14.60
2010,04,12,09,59,14.60
2010,04,12,10,00,14.60
2010,04,12,10,01,14.60
2010,04,12,10,02,14.60
2010,04,12,10,03,14.50
2010,04,12,10,04,14.50
2010,04,12,10,05,14.50
2010,04,12,10,06,14.50
2010,04,12,10,07,14.50
2010,04,12,10,08,14.50
2010,04,12,10,09,14.50
2010,04,12,10,10,14.50
2010,04,12,10,11,14.50
2010,04,12,10,12,14.50
2010,04,12,10,13,14.50
2010,04,12,10,14,14.60
2010,04,12,10,15,14.60
2010,04,12,10,16,14.50
2010,04,12,10,17,14.50
2010,04,12,10,18,14.50
2010,04,12,10,19,14.50
2010,04,12,10,20,14.50
2010,04,12,10,21,14.60
2010,04,12,10,22,14.60
2010,04,12,10,23,14.70
2010,04,12,10,24,14.70
2010,04,12,10,25,14.70
2010,04,12,10,26,14.70
2010,04,12,10,27,14.70
2010,04,12,10,28,14.70
2010,04,12,10,29,14.60
2010,04,12,10,30,14.60
2010,04,12,10,31,14.60
2010,04,12,10,32,14.60
2010,04,12,10,33,14.60
2010,04,12,10,34,14.60
2010,04,12,10,35,14.60
2010,04,12,10,36,14.60
2010,04,12,10,37,14.70
2010,04,12,10,38,14.70
2010,04,12,10,39,14.70
2010,04,12,10,40,14.80
2010,04,12,10,41,14.80
2010,04,12,10,42,14.80
2010,04,12,10,43,14.80
2010,04,12,10,44,14.80
2010,04,12,10,45,14.70
2010,04,12,10,46,14.70
2010,04,12,10,47,14.70
2010,04,12,10,48,14.80
2010,04,12,10,49,14.80
2010,04,12,10,50,14.80
2010,04,12,10,51,14.80
2010,04,12,10,52,14.90
2010,04,12,10,53,14.90
2010,04,12,10,54,14.80
2010,04,12,10,55,14.80
2010,04,12,10,56,14.80
2010,04,12,10,57,14.70
2010,04,12,10,58,14.70
2010,04,12,10,59,14.70
2010,04,12,11,00,14.70
2010,04,12,11,01,14.80
2010,04,12,11,02,14.80
2010,04,12,11,03,14.90
2010,04,12,11,04,15.00
2010,04,12,11,05,15.00
2010,04,12,11,06,15.10
2010,04,12,11,07,15.10
2010,04,12,11,08,15.10
2010,04,12,11,09,15.20
2010,04,12,11,10,15.20
2010,04,12,11,11,15.30
2010,04,12,11,12,15.30
2010,04,12,11,13,15.30
2010,04,12,11,14,15.30
2010,04,12,11,15,15.30
2010,04,12,11,16,15.30
2010,04,12,11,17,15.30
2010,04,12,11,18,15.30
2010,04,12,11,19,15.30
2010,04,12,11,20,15.30
2010,04,12,11,21,15.20
2010,04,12,11,22,15.20
2010,04,12,11,23,15.10
2010,04,12,11,24,15.10
2010,04,12,11,25,15.10
2010,04,12,11,26,15.10
2010,04,12,11,27,15.10
2010,04,12,11,28,15.10
2010,04,12,11,29,15.00
2010,04,12,11,30,15.00
2010,04,12,11,31,15.10
2010,04,12,11,32,15.10
2010,04,12,11,33,15.10
2010,04,12,11,34,15.20
2010,04,12,11,35,15.30
2010,04,12,11,36,15.30
2010,04,12,11,37,15.30
2010,04,12,11,38,15.20
2010,04,12,11,39,15.10
2010,04,12,11,40,14.90
2010,04,12,11,41,14.60
2010,04,12,11,42,14.30
2010,04,12,11,43,13.90
2010,04,12,11,44,13.70
2010,04,12,11,45,13.50
2010,04,12,11,46,13.40
2010,04,12,11,47,13.30
2010,04,12,11,48,13.30
2010,04,12,11,49,13.30
2010,04,12,11,50,13.40
2010,04,12,11,51,13.40
2010,04,12,11,52,13.50
2010,04,12,11,53,13.50
2010,04,12,11,54,13.40
2010,04,12,11,55,13.40
2010,04,12,11,56,13.40
2010,04,12,11,57,13.40
2010,04,12,11,58,13.30
2010,04,12,11,59,13.20
2010,04,12,12,00,13.10
2010,04,12,12,01,13.10
2010,04,12,12,02,13.00
2010,04,12,12,03,13.00
2010,04,12,12,04,12.90
2010,04,12,12,05,12.90
2010,04,12,12,06,13.00
2010,04,12,12,07,13.00
2010,04,12,12,08,13.00
2010,04,12,12,09,13.10
2010,04,12,12,10,13.10
2010,04,12,12,11,13.00
2010,04,12,12,12,12.90
2010,04,12,12,13,12.80
2010,04,12,12,14,12.80
2010,04,12,12,15,12.80
2010,04,12,12,16,12.90
2010,04,12,12,17,13.00
2010,04,12,12,18,13.00
2010,04,12,12,19,13.10
2010,04,12,12,20,13.10
2010,04,12,12,21,13.10
2010,04,12,12,22,13.00
2010,04,12,12,23,13.00
2010,04,12,12,24,13.00
2010,04,12,12,25,13.10
2010,04,12,12,26,13.00
2010,04,12,12,27,13.00
2010,04,12,12,28,13.00
2010,04,12,12,29,13.00
2010,04,12,12,30,13.00
2010,04,12,12,31,13.10
2010,04,12,12,32,13.10
2010,04,12,12,33,13.20
2010,04,12,12,34,13.20
2010,04,12,12,35,13.30
2010,04,12,12,36,13.30
2010,04,12,12,37,13.30
2010,04,12,12,38,13.30
2010,04,12,12,39,13.30
2010,04,12,12,40,13.30
2010,04,12,12,41,13.30
2010,04,12,12,42,13.30
2010,04,12,12,43,13.40
2010,04,12,12,44,13.40
2010,04,12,12,45,13.30
2010,04,12,12,46,13.40
2010,04,12,12,47,13.40
2010,04,12,12,48,13.40
2010,04,12,12,49,13.50
2010,04,12,12,50,13.50
2010,04,12,12,51,13.60
2010,04,12,12,52,13.60
2010,04,12,12,53,13.50
2010,04,12,12,54,13.60
2010,04,12,12,55,13.60
2010,04,12,12,56,13.60
2010,04,12,12,57,13.60
2010,04,12,12,58,13.60
2010,04,12,12,59,13.60
2010,04,12,13,00,13.60
2010,04,12,13,01,13.70
2010,04,12,13,02,13.70
2010,04,12,13,03,13.80
2010,04,12,13,04,13.80
2010,04,12,13,05,13.80
2010,04,12,13,06,13.80
2010,04,12,13,07,13.80
2010,04,12,13,08,13.80
2010,04,12,13,09,13.90
2010,04,12,13,10,14.00
2010,04,12,13,11,14.00
2010,04,12,13,12,14.10
2010,04,12,13,13,14.20
2010,04,12,13,14,14.20
2010,04,12,13,15,14.30
2010,04,12,13,16,14.30
2010,04,12,13,17,14.20
2010,04,12,13,18,14.20
2010,04,12,13,19,14.10
2010,04,12,13,20,14.00
2010,04,12,13,21,14.00
2010,04,12,13,22,13.90
2010,04,12,13,23,13.90
2010,04,12,13,24,13.90
2010,04,12,13,25,13.80
2010,04,12,13,26,13.70
2010,04,12,13,27,13.80
2010,04,12,13,28,13.80
2010,04,12,13,29,13.70
2010,04,12,13,30,13.70
2010,04,12,13,31,13.80
2010,04,12,13,32,13.80
2010,04,12,13,33,13.60
2010,04,12,13,34,13.60
2010,04,12,13,35,13.60
2010,04,12,13,36,13.70
2010,04,12,13,37,13.70
2010,04,12,13,38,13.70
2010,04,12,13,39,13.70
2010,04,12,13,40,13.70
2010,04,12,13,41,13.70
2010,04,12,13,42,13.70
2010,04,12,13,43,13.60
2010,04,12,13,44,13.60
2010,04,12,13,45,13.60
2010,04,12,13,46,13.50
2010,04,12,13,47,13.60
2010,04,12,13,48,13.60
2010,04,12,13,49,13.60
2010,04,12,13,50,13.50
2010,04,12,13,51,13.40
2010,04,12,13,52,13.40
2010,04,12,13,53,13.30
2010,04,12,13,54,13.30
2010,04,12,13,55,13.30
2010,04,12,13,56,13.30
2010,04,12,13,57,13.30
2010,04,12,13,58,13.30
2010,04,12,13,59,13.30
2010,04,12,14,00,13.40
2010,04,12,14,01,13.50
2010,04,12,14,02,13.60
2010,04,12,14,03,13.60
2010,04,12,14,04,13.60
2010,04,12,14,05,13.60
2010,04,12,14,06,13.60
2010,04,12,14,07,13.60
2010,04,12,14,08,13.60
2010,04,12,14,09,13.60
2010,04,12,14,10,13.50
2010,04,12,14,11,13.50
2010,04,12,14,12,13.50
2010,04,12,14,13,13.50
2010,04,12,14,14,13.60
2010,04,12,14,15,13.60
2010,04,12,14,16,13.60
2010,04,12,14,17,13.60
2010,04,12,14,18,13.60
2010,04,12,14,19,13.60
2010,04,12,14,20,13.60
2010,04,12,14,21,13.50
2010,04,12,14,22,13.50
2010,04,12,14,23,13.40
2010,04,12,14,24,13.40
2010,04,12,14,25,13.40
2010,04,12,14,26,13.50
2010,04,12,14,27,13.50
2010,04,12,14,28,13.50
2010,04,12,14,29,13.60
2010,04,12,14,30,13.60
2010,04,12,14,31,13.60
2010,04,12,14,32,13.60
2010,04,12,14,33,13.60
2010,04,12,14,34,13.60
2010,04,12,14,35,13.60
2010,04,12,14,36,13.60
2010,04,12,14,37,13.60
2010,04,12,14,38,13.60
2010,04,12,14,39,13.60
2010,04,12,14,40,13.60
2010,04,12,14,41,13.50
2010,04,12,14,42,13.50
2010,04,12,14,43,13.50
2010,04,12,14,44,13.50
2010,04,12,14,45,13.50
2010,04,12,14,46,13.50
2010,04,12,14,47,13.50
2010,04,12,14,48,13.60
2010,04,12,14,49,13.60
2010,04,12,14,50,13.70
2010,04,12,14,51,13.70
2010,04,12,14,52,13.70
2010,04,12,14,53,13.80
2010,04,12,14,54,13.80
2010,04,12,14,55,13.80
2010,04,12,14,56,13.90
2010,04,12,14,57,13.90
2010,04,12,14,58,13.90
2010,04,12,14,59,13.90
2010,04,12,15,00,14.00
2010,04,12,15,01,14.00
2010,04,12,15,02,14.00
2010,04,12,15,03,13.90
2010,04,12,15,04,13.90
2010,04,12,15,05,13.90
2010,04,12,15,06,13.80
2010,04,12,15,07,13.70
2010,04,12,15,08,13.70
2010,04,12,15,09,13.70
2010,04,12,15,10,13.70
2010,04,12,15,11,13.70
2010,04,12,15,12,13.70
2010,04,12,15,13,13.70
2010,04,12,15,14,13.70
2010,04,12,15,15,13.70
2010,04,12,15,16,13.70
2010,04,12,15,17,13.60
2010,04,12,15,18,13.60
2010,04,12,15,19,13.70
2010,04,12,15,20,13.70
2010,04,12,15,21,13.60
2010,04,12,15,22,13.50
2010,04,12,15,23,13.50
2010,04,12,15,24,13.40
2010,04,12,15,25,13.50
2010,04,12,15,26,13.40
2010,04,12,15,27,13.40
2010,04,12,15,28,13.30
2010,04,12,15,29,13.30
2010,04,12,15,30,13.30
2010,04,12,15,31,13.30
2010,04,12,15,32,13.40
2010,04,12,15,33,13.50
2010,04,12,15,34,13.60
2010,04,12,15,35,13.60
2010,04,12,15,36,13.60
2010,04,12,15,37,13.60
2010,04,12,15,38,13.70
2010,04,12,15,39,13.70
2010,04,12,15,40,13.70
2010,04,12,15,41,13.70
2010,04,12,15,42,13.70
2010,04,12,15,43,13.70
2010,04,12,15,44,13.70
2010,04,12,15,45,13.70
2010,04,12,15,46,13.70
2010,04,12,15,47,13.70
2010,04,12,15,48,13.60
2010,04,12,15,49,13.60
2010,04,12,15,50,13.60
2010,04,12,15,51,13.60
2010,04,12,15,52,13.60
2010,04,12,15,53,13.60
2010,04,12,15,54,13.60
2010,04,12,15,55,13.60
2010,04,12,15,56,13.60
2010,04,12,15,57,13.60
2010,04,12,15,58,13.60
2010,04,12,15,59,13.70
2010,04,12,16,00,13.70
2010,04,12,16,01,13.70
2010,04,12,16,02,13.70
2010,04,12,16,03,13.70
2010,04,12,16,04,13.70
2010,04,12,16,05,13.70
2010,04,12,16,06,13.70
2010,04,12,16,07,13.70
2010,04,12,16,08,13.70
2010,04,12,16,09,13.70
2010,04,12,16,10,13.70
2010,04,12,16,11,13.70
2010,04,12,16,12,13.70
2010,04,12,16,13,13.80
2010,04,12,16,14,13.90
2010,04,12,16,15,13.90
2010,04,12,16,16,13.90
2010,04,12,16,17,14.00
2010,04,12,16,18,14.00
2010,04,12,16,19,13.90
2010,04,12,16,20,13.80
2010,04,12,16,21,13.80
2010,04,12,16,22,13.90
2010,04,12,16,23,13.90
2010,04,12,16,24,14.00
2010,04,12,16,25,14.00
2010,04,12,16,26,14.00
2010,04,12,16,27,14.00
2010,04,12,16,28,14.00
2010,04,12,16,29,14.00
2010,04,12,16,30,14.00
2010,04,12,16,31,14.00
2010,04,12,16,32,14.00
2010,04,12,16,33,14.00
2010,04,12,16,34,14.00
2010,04,12,16,35,14.00
2010,04,12,16,36,14.10
2010,04,12,16,37,14.10
2010,04,12,16,38,14.10
2010,04,12,16,39,14.10
2010,04,12,16,40,14.10
2010,04,12,16,41,14.10
2010,04,12,16,42,14.10
2010,04,12,16,43,14.20
2010,04,12,16,44,14.20
2010,04,12,16,45,14.20
2010,04,12,16,46,14.20
2010,04,12,16,47,14.20
2010,04,12,16,48,14.20
2010,04,12,16,49,14.20
2010,04,12,16,50,14.20
2010,04,12,16,51,14.10
2010,04,12,16,52,14.10
2010,04,12,16,53,14.10
2010,04,12,16,54,14.10
2010,04,12,16,55,14.10
2010,04,12,16,56,14.10
2010,04,12,16,57,14.10
2010,04,12,16,58,14.10
2010,04,12,16,59,14.10
2010,04,12,17,00,14.10
2010,04,12,17,01,14.10
2010,04,12,17,02,14.20
2010,04,12,17,03,14.20
2010,04,12,17,04,14.20
2010,04,12,17,05,14.20
2010,04,12,17,06,14.20
2010,04,12,17,07,14.20
2010,04,12,17,08,14.30
2010,04,12,17,09,14.30
2010,04,12,17,10,14.30
2010,04,12,17,11,14.30
2010,04,12,17,12,14.40
2010,04,12,17,13,14.40
2010,04,12,17,14,14.40
2010,04,12,17,15,14.40
2010,04,12,17,16,14.30
2010,04,12,17,17,14.30
2010,04,12,17,18,14.30
2010,04,12,17,19,14.30
2010,04,12,17,20,14.30
2010,04,12,17,21,14.30
2010,04,12,17,22,14.30
2010,04,12,17,23,14.40
2010,04,12,17,24,14.40
2010,04,12,17,25,14.30
2010,04,12,17,26,14.30
2010,04,12,17,27,14.30
2010,04,12,17,28,14.30
2010,04,12,17,29,14.20
2010,04,12,17,30,14.20
2010,04,12,17,31,14.20
2010,04,12,17,32,14.10
2010,04,12,17,33,14.10
2010,04,12,17,34,14.10
2010,04,12,17,35,14.10
2010,04,12,17,36,14.00
2010,04,12,17,37,13.90
2010,04,12,17,38,13.90
2010,04,12,17,39,13.80
2010,04,12,17,40,13.80
2010,04,12,17,41,13.70
2010,04,12,17,42,13.70
2010,04,12,17,43,13.60
2010,04,12,17,44,13.60
2010,04,12,17,45,13.50
2010,04,12,17,46,13.50
2010,04,12,17,47,13.50
2010,04,12,17,48,13.50
2010,04,12,17,49,13.50
2010,04,12,17,50,13.40
2010,04,12,17,51,13.40
2010,04,12,17,52,13.30
2010,04,12,17,53,13.30
2010,04,12,17,54,13.30
2010,04,12,17,55,13.30
2010,04,12,17,56,13.30
2010,04,12,17,57,13.30
2010,04,12,17,58,13.30
2010,04,12,17,59,13.30
2010,04,12,18,00,13.30
2010,04,12,18,01,13.30
2010,04,12,18,02,13.30
2010,04,12,18,03,13.30
2010,04,12,18,04,13.30
2010,04,12,18,05,13.30
2010,04,12,18,06,13.40
2010,04,12,18,07,13.40
2010,04,12,18,08,13.40
2010,04,12,18,09,13.40
2010,04,12,18,10,13.40
2010,04,12,18,11,13.40
2010,04,12,18,12,13.40
2010,04,12,18,13,13.40
2010,04,12,18,14,13.40
2010,04,12,18,15,13.40
2010,04,12,18,16,13.40
2010,04,12,18,17,13.40
2010,04,12,18,18,13.30
2010,04,12,18,19,13.20
2010,04,12,18,20,13.10
2010,04,12,18,21,13.10
2010,04,12,18,22,13.10
2010,04,12,18,23,13.10
2010,04,12,18,24,13.10
2010,04,12,18,25,13.00
2010,04,12,18,26,13.00
2010,04,12,18,27,13.00
2010,04,12,18,28,13.10
2010,04,12,18,29,13.00
2010,04,12,18,30,13.00
2010,04,12,18,31,13.00
2010,04,12,18,32,13.00
2010,04,12,18,33,13.00
2010,04,12,18,34,13.00
2010,04,12,18,35,13.00
2010,04,12,18,36,13.00
2010,04,12,18,37,13.00
2010,04,12,18,38,12.90
2010,04,12,18,39,12.90
2010,04,12,18,40,12.90
2010,04,12,18,41,12.90
2010,04,12,18,42,12.90
2010,04,12,18,43,12.90
2010,04,12,18,44,12.90
2010,04,12,18,45,12.90
2010,04,12,18,46,12.90
2010,04,12,18,47,12.90
2010,04,12,18,48,12.90
2010,04,12,18,49,12.90
2010,04,12,18,50,12.90
2010,04,12,18,51,12.90
2010,04,12,18,52,12.90
2010,04,12,18,53,12.90
2010,04,12,18,54,12.90
2010,04,12,18,55,12.80
2010,04,12,18,56,12.80
2010,04,12,18,57,12.80
2010,04,12,18,58,12.80
2010,04,12,18,59,12.80
2010,04,12,19,00,12.80
2010,04,12,19,01,12.80
2010,04,12,19,02,12.80
2010,04,12,19,03,12.70
2010,04,12,19,04,12.70
2010,04,12,19,05,12.70
2010,04,12,19,06,12.60
2010,04,12,19,07,12.60
2010,04,12,19,08,12.60
2010,04,12,19,09,12.60
2010,04,12,19,10,12.60
2010,04,12,19,11,12.60
2010,04,12,19,12,12.60
2010,04,12,19,13,12.60
2010,04,12,19,14,12.60
2010,04,12,19,15,12.60
2010,04,12,19,16,12.70
2010,04,12,19,17,12.70
2010,04,12,19,18,12.70
2010,04,12,19,19,12.70
2010,04,12,19,20,12.70
2010,04,12,19,21,12.70
2010,04,12,19,22,12.70
2010,04,12,19,23,12.70
2010,04,12,19,24,12.70
2010,04,12,19,25,12.70
2010,04,12,19,26,12.70
2010,04,12,19,27,12.60
2010,04,12,19,28,12.60
2010,04,12,19,29,12.60
2010,04,12,19,30,12.50
2010,04,12,19,31,12.50
2010,04,12,19,32,12.50
2010,04,12,19,33,12.50
2010,04,12,19,34,12.50
2010,04,12,19,35,12.50
2010,04,12,19,36,12.50
2010,04,12,19,37,12.50
2010,04,12,19,38,12.50
2010,04,12,19,39,12.50
2010,04,12,19,40,12.50
2010,04,12,19,41,12.50
2010,04,12,19,42,12.50
2010,04,12,19,43,12.50
2010,04,12,19,44,12.50
2010,04,12,19,45,12.50
2010,04,12,19,46,12.50
2010,04,12,19,47,12.40
2010,04,12,19,48,12.40
2010,04,12,19,49,12.40
2010,04,12,19,50,12.40
2010,04,12,19,51,12.40
2010,04,12,19,52,12.40
2010,04,12,19,53,12.40
2010,04,12,19,54,12.40
2010,04,12,19,55,12.40
2010,04,12,19,56,12.40
2010,04,12,19,57,12.40
2010,04,12,19,58,12.30
2010,04,12,19,59,12.30
2010,04,12,20,00,12.30
2010,04,12,20,01,12.30
2010,04,12,20,02,12.30
2010,04,12,20,03,12.30
2010,04,12,20,04,12.30
2010,04,12,20,05,12.30
2010,04,12,20,06,12.30
2010,04,12,20,07,12.30
2010,04,12,20,08,12.30
2010,04,12,20,09,12.30
2010,04,12,20,10,12.30
2010,04,12,20,11,12.30
2010,04,12,20,12,12.30
2010,04,12,20,13,12.30
2010,04,12,20,14,12.30
2010,04,12,20,15,12.30
2010,04,12,20,16,12.30
2010,04,12,20,17,12.30
2010,04,12,20,18,12.30
2010,04,12,20,19,12.30
2010,04,12,20,20,12.30
2010,04,12,20,21,12.30
2010,04,12,20,22,12.30
2010,04,12,20,23,12.30
2010,04,12,20,24,12.30
2010,04,12,20,25,12.20
2010,04,12,20,26,12.20
2010,04,12,20,27,12.20
2010,04,12,20,28,12.20
2010,04,12,20,29,12.10
2010,04,12,20,30,12.10
2010,04,12,20,31,12.10
2010,04,12,20,32,12.10
2010,04,12,20,33,12.20
2010,04,12,20,34,12.20
2010,04,12,20,35,12.20
2010,04,12,20,36,12.10
2010,04,12,20,37,12.10
2010,04,12,20,38,12.10
2010,04,12,20,39,12.10
2010,04,12,20,40,12.10
2010,04,12,20,41,12.10
2010,04,12,20,42,12.10
2010,04,12,20,43,12.00
2010,04,12,20,44,12.00
2010,04,12,20,45,12.00
2010,04,12,20,46,12.00
2010,04,12,20,47,12.00
2010,04,12,20,48,12.00
2010,04,12,20,49,12.00
2010,04,12,20,50,12.00
2010,04,12,20,51,12.00
2010,04,12,20,52,12.00
2010,04,12,20,53,11.90
2010,04,12,20,54,11.90
2010,04,12,20,55,11.90
2010,04,12,20,56,11.90
2010,04,12,20,57,11.90
2010,04,12,20,58,11.90
2010,04,12,20,59,11.90
2010,04,12,21,00,11.90
2010,04,12,21,01,11.90
2010,04,12,21,02,11.90
2010,04,12,21,03,11.90
2010,04,12,21,04,11.80
2010,04,12,21,05,11.80
2010,04,12,21,06,11.80
2010,04,12,21,07,11.80
2010,04,12,21,08,11.80
2010,04,12,21,09,11.80
2010,04,12,21,10,11.80
2010,04,12,21,11,11.90
2010,04,12,21,12,11.90
2010,04,12,21,13,11.90
2010,04,12,21,14,11.90
2010,04,12,21,15,11.80
2010,04,12,21,16,11.80
2010,04,12,21,17,11.80
2010,04,12,21,18,11.80
2010,04,12,21,19,11.80
2010,04,12,21,20,11.80
2010,04,12,21,21,11.80
2010,04,12,21,22,11.80
2010,04,12,21,23,11.70
2010,04,12,21,24,11.70
2010,04,12,21,25,11.70
2010,04,12,21,26,11.60
2010,04,12,21,27,11.60
2010,04,12,21,28,11.60
2010,04,12,21,29,11.60
2010,04,12,21,30,11.60
2010,04,12,21,31,11.60
2010,04,12,21,32,11.50
2010,04,12,21,33,11.40
2010,04,12,21,34,11.40
2010,04,12,21,35,11.40
2010,04,12,21,36,11.40
2010,04,12,21,37,11.40
2010,04,12,21,38,11.40
2010,04,12,21,39,11.40
2010,04,12,21,40,11.30
2010,04,12,21,41,11.30
2010,04,12,21,42,11.30
2010,04,12,21,43,11.30
2010,04,12,21,44,11.30
2010,04,12,21,45,11.30
2010,04,12,21,46,11.30
2010,04,12,21,47,11.30
2010,04,12,21,48,11.30
2010,04,12,21,49,11.30
2010,04,12,21,50,11.30
2010,04,12,21,51,11.30
2010,04,12,21,52,11.20
2010,04,12,21,53,11.20
2010,04,12,21,54,11.20
2010,04,12,21,55,11.20
2010,04,12,21,56,11.20
2010,04,12,21,57,11.20
2010,04,12,21,58,11.20
2010,04,12,21,59,11.20
2010,04,12,22,00,11.20
2010,04,12,22,01,11.10
2010,04,12,22,02,11.10
2010,04,12,22,03,11.10
2010,04,12,22,04,11.10
2010,04,12,22,05,11.10
2010,04,12,22,06,11.10
2010,04,12,22,07,11.10
2010,04,12,22,08,11.10
2010,04,12,22,09,11.10
2010,04,12,22,10,11.10
2010,04,12,22,11,11.10
2010,04,12,22,12,11.10
2010,04,12,22,13,11.10
2010,04,12,22,14,10.90
2010,04,12,22,15,10.90
2010,04,12,22,16,10.90
2010,04,12,22,17,10.90
2010,04,12,22,18,10.90
2010,04,12,22,19,10.90
2010,04,12,22,20,10.90
2010,04,12,22,21,10.80
2010,04,12,22,22,10.80
2010,04,12,22,23,10.80
2010,04,12,22,24,10.80
2010,04,12,22,25,10.80
2010,04,12,22,26,10.80
2010,04,12,22,27,10.70
2010,04,12,22,28,10.70
2010,04,12,22,29,10.70
2010,04,12,22,30,10.70
2010,04,12,22,31,10.60
2010,04,12,22,32,10.60
2010,04,12,22,33,10.60
2010,04,12,22,34,10.60
2010,04,12,22,35,10.60
2010,04,12,22,36,10.60
2010,04,12,22,37,10.60
2010,04,12,22,38,10.60
2010,04,12,22,39,10.60
2010,04,12,22,40,10.60
2010,04,12,22,41,10.60
2010,04,12,22,42,10.60
2010,04,12,22,43,10.60
2010,04,12,22,44,10.60
2010,04,12,22,45,10.60
2010,04,12,22,46,10.60
2010,04,12,22,47,10.60
2010,04,12,22,48,10.60
2010,04,12,22,49,10.60
2010,04,12,22,50,10.60
2010,04,12,22,51,10.60
2010,04,12,22,52,10.60
2010,04,12,22,53,10.60
2010,04,12,22,54,10.60
2010,04,12,22,55,10.60
2010,04,12,22,56,10.60
2010,04,12,22,57,10.60
2010,04,12,22,58,10.60
2010,04,12,22,59,10.60
2010,04,12,23,00,10.60
2010,04,12,23,01,10.60
2010,04,12,23,02,10.60
2010,04,12,23,03,10.60
2010,04,12,23,04,10.60
2010,04,12,23,05,10.60
2010,04,12,23,06,10.60
2010,04,12,23,07,10.60
2010,04,12,23,08,10.60
2010,04,12,23,09,10.60
2010,04,12,23,10,10.60
2010,04,12,23,11,10.60
2010,04,12,23,12,10.60
2010,04,12,23,13,10.60
2010,04,12,23,14,10.60
2010,04,12,23,15,10.60
2010,04,12,23,16,10.60
2010,04,12,23,17,10.60
2010,04,12,23,18,10.60
2010,04,12,23,19,10.60
2010,04,12,23,20,10.60
2010,04,12,23,21,10.60
2010,04,12,23,22,10.60
2010,04,12,23,23,10.60
2010,04,12,23,24,10.60
2010,04,12,23,25,10.60
2010,04,12,23,26,10.60
2010,04,12,23,27,10.60
2010,04,12,23,28,10.50
2010,04,12,23,29,10.40
2010,04,12,23,30,10.40
2010,04,12,23,31,10.40